sat.trackr.live / text

‹ back to catalog

STARLINK-36958

NORAD 68163 · 2026-049X

PAYLOAD ACTIVE UNKNOWN

§ Identity

Operator
Country
US
Launch date
2026-03-13
Launch site
AFWTR
Launch vehicle
Mass (kg)
RCS (m²)

Purposes: comms

External: N2YO · Heavens-Above · Gunter

§ Orbital elements

Epoch: 2026-09-20T02:13:53.829696Z

Period
93.91 min
Inclination
97.2837°
Eccentricity
0.0001546
Mean motion
15.33454751 rev/d
Perigee alt
464.5 km
Apogee alt
466.6 km
Semi-major
6,843.7 km
B*
5.5087e-4
RAAN
282.9784°
Arg perigee
101.9242°
Mean anomaly
258.2174°
Rev number
2,943

§ Raw data

STARLINK-369581 68163U 26049X   26263.09298414  .00017757  00000+0  55087-3 0  99952 68163  97.2837 282.9784 0001546 101.9242 258.2174 15.33454751 29432

JSON: /api/v1/satellites/68163 · /tle

For live sub-satellite position, see the globe view (requires WebGL).

§ Visibility from observer

Set your observer location to see the next 7 days of passes ≥ 10°. The values pass through the URL so the page stays shareable.

No JS? Fill the form by hand. The geolocation button needs JavaScript.